FW9229 Weather Reports


Display with metric or nautical units.
time (UTC)temp
F
wind
direction
speed
MPH
gust
MPH
rain 1hr
in
rain 24hr
in
rain mn
in
humidity
%
barometer
mb
20260504230513 80 146 6.0 23.0 0.00 0.00 0.00 60 1006.7
20260504230035 80 220 8.0 18.0 0.00 0.00 0.00 60 1006.6
20260504225523 80 213 4.0 12.0 0.00 0.00 0.00 60 1006.6
20260504225014 80 149 3.0 17.0 0.00 0.00 0.00 60 1006.7
20260504224532 80 225 7.0 17.0 0.00 0.00 0.00 59 1006.8
20260504224013 80 193 4.0 21.0 0.00 0.00 0.00 59 1006.8
20260504223511 80 199 8.0 21.0 0.00 0.00 0.00 58 1006.8
20260504223030 81 179 7.0 19.0 0.00 0.00 0.00 59 1006.8
20260504222512 80 186 3.0 15.0 0.00 0.00 0.00 59 1006.7
20260504222014 80 229 6.0 19.0 0.00 0.00 0.00 59 1006.8
20260504221530 81 191 7.0 19.0 0.00 0.00 0.00 58 1006.8
20260504221012 81 183 4.0 18.0 0.00 0.00 0.00 59 1007.0
20260504220514 80 217 5.0 18.0 0.00 0.00 0.00 58 1006.9
20260504220034 80 208 4.0 15.0 0.00 0.00 0.00 58 1007.2
20260504215513 80 203 7.0 15.0 0.00 0.00 0.00 57 1007.2
20260504215017 81 199 7.0 22.0 0.00 0.00 0.00 56 1007.3
20260504214539 82 199 5.0 22.0 0.00 0.00 0.00 56 1007.3
20260504214014 82 205 7.0 19.0 0.00 0.00 0.00 55 1007.4
20260504213514 82 185 4.0 22.0 0.00 0.00 0.00 56 1007.5
20260504213032 82 168 5.0 22.0 0.00 0.00 0.00 55 1007.4
20260504212515 83 177 4.0 13.0 0.00 0.00 0.00 54 1007.5
20260504212014 82 220 4.0 20.0 0.00 0.00 0.00 57 1007.5
20260504211530 81 216 8.0 20.0 0.00 0.00 0.00 56 1007.7
20260504211013 82 228 6.0 18.0 0.00 0.00 0.00 55 1007.9
20260504210518 82 218 4.0 16.0 0.00 0.00 0.00 56 1008.0
20260504210030 82 96 5.0 23.0 0.00 0.00 0.00 56 1008.0
20260504205514 82 222 7.0 23.0 0.00 0.00 0.00 56 1008.2
20260504205015 82 210 6.0 17.0 0.00 0.00 0.00 55 1008.2
20260504204604 81 189 4.0 17.0 0.00 0.00 0.00 57 1008.3
20260504204013 81 245 5.0 17.0 0.00 0.00 0.00 56 1008.5
20260504203513 81 231 6.0 15.0 0.00 0.00 0.00 56 1008.5
20260504203032 81 171 6.0 15.0 0.00 0.00 0.00 55 1008.6
20260504202513 82 107 7.0 17.0 0.00 0.00 0.00 54 1008.7
20260504202014 82 91 5.0 17.0 0.00 0.00 0.00 54 1008.7
20260504201530 82 241 6.0 15.0 0.00 0.00 0.00 54 1008.9
20260504201011 81 182 6.0 16.0 0.00 0.00 0.00 54 1009.0
20260504200516 82 171 7.0 20.0 0.00 0.00 0.00 53 1009.0
20260504200035 81 226 7.0 20.0 0.00 0.00 0.00 55 1009.1
20260504195512 82 200 8.0 17.0 0.00 0.00 0.00 53 1009.1
20260504195013 82 232 5.0 16.0 0.00 0.00 0.00 53 1009.1
20260504194534 82 169 4.0 16.0 0.00 0.00 0.00 53 1009.1
20260504194018 82 195 6.0 17.0 0.00 0.00 0.00 53 1009.2
20260504193514 81 264 6.0 17.0 0.00 0.00 0.00 54 1009.3
20260504193033 81 202 3.0 15.0 0.00 0.00 0.00 55 1009.5
20260504192514 81 221 6.0 23.0 0.00 0.00 0.00 55 1009.4
20260504192014 80 175 8.0 23.0 0.00 0.00 0.00 54 1009.7
20260504191531 81 220 5.0 14.0 0.00 0.00 0.00 54 1009.8
20260504191013 81 195 5.0 14.0 0.00 0.00 0.00 53 1009.9
20260504190513 80 198 5.0 21.0 0.00 0.00 0.00 55 1010.0
20260504190035 80 209 7.0 21.0 0.00 0.00 0.00 54 1010.1
20260504185516 79 215 6.0 16.0 0.00 0.00 0.00 54 1010.0
20260504185012 79 215 6.0 18.0 0.00 0.00 0.00 55 1010.0
20260504184532 79 194 7.0 18.0 0.00 0.00 0.00 54 1010.2
20260504184017 79 189 7.0 17.0 0.00 0.00 0.00 54 1010.2
20260504183514 79 269 5.0 17.0 0.00 0.00 0.00 54 1010.2
20260504183030 79 188 6.0 17.0 0.00 0.00 0.00 54 1010.3
20260504182513 79 212 7.0 16.0 0.00 0.00 0.00 53 1010.5
20260504182013 79 194 4.0 13.0 0.00 0.00 0.00 54 1010.6
20260504181534 79 210 6.0 13.0 0.00 0.00 0.00 52 1010.7
20260504181013 79 231 5.0 15.0 0.00 0.00 0.00 53 1010.8
20260504180514 79 218 6.0 17.0 0.00 0.00 0.00 53 1010.6
20260504180033 79 0 6.0 17.0 0.00 0.00 0.00 52 1010.4
20260504175513 79 162 3.0 15.0 0.00 0.00 0.00 52 1010.5
20260504175015 78 200 4.0 16.0 0.00 0.00 0.00 52 1010.9
20260504174530 78 200 8.0 16.0 0.00 0.00 0.00 51 1011.0
20260504174013 78 191 5.0 15.0 0.00 0.00 0.00 51 1011.1
20260504173513 78 220 6.0 15.0 0.00 0.00 0.00 50 1011.1
20260504173029 78 202 6.0 16.0 0.00 0.00 0.00 51 1011.0
20260504172512 77 187 7.0 16.0 0.00 0.00 0.00 52 1011.3
20260504172015 77 175 5.0 18.0 0.00 0.00 0.00 52 1011.4
20260504171541 77 203 4.0 18.0 0.00 0.00 0.00 51 1011.5
20260504171015 77 259 6.0 18.0 0.00 0.00 0.00 51 1011.4
20260504170513 77 236 4.0 18.0 0.00 0.00 0.00 52 1011.6
20260504151013 70 212 5.0 15.0 0.00 0.00 0.00 62 1012.9
20260504150515 69 222 6.0 19.0 0.00 0.00 0.00 63 1012.9
20260504141012 67 202 6.0 15.0 0.00 0.00 0.00 70 1013.0
20260504140512 66 229 5.0 19.0 0.00 0.00 0.00 71 1013.1
20260504130513 65 217 1.0 22.0 0.00 0.00 0.00 73 1013.1
20260504110513 65 206 4.0 12.0 0.00 0.00 0.00 66 1012.8
20260504100513 65 184 4.0 13.0 0.00 0.00 0.00 68 1012.9
20260504081539 66 0 2.0 9.0 0.00 0.00 0.00 60 1013.5
20260504081013 66 0 2.0 8.0 0.00 0.00 0.00 59 1013.6
20260504080515 66 231 2.0 8.0 0.00 0.00 0.00 59 1013.6
20260504050517 69 195 3.0 10.0 0.00 0.00 0.00 54 1015.5
20260504045516 69 0 2.0 9.0 0.00 0.00 0.00 54 1015.6
20260504045013 70 179 2.0 9.0 0.00 0.00 0.00 54 1015.6
20260504044540 70 181 4.0 9.0 0.00 0.00 0.00 54 1015.6
20260504044016 70 181 2.0 9.0 0.00 0.00 0.00 54 1015.6
20260504043512 70 217 2.0 9.0 0.00 0.00 0.00 53 1015.8
20260504043032 70 185 1.0 9.0 0.00 0.00 0.00 53 1015.8
20260504042512 70 216 2.0 9.0 0.00 0.00 0.00 53 1015.7
20260504042015 70 212 2.0 9.0 0.00 0.00 0.00 52 1015.7
20260504041533 70 179 2.0 9.0 0.00 0.00 0.00 52 1015.8
20260504041013 70 175 3.0 10.0 0.00 0.00 0.00 51 1015.8
20260504040516 71 204 1.0 10.0 0.00 0.00 0.00 51 1015.8
20260504040030 71 214 3.0 9.0 0.00 0.00 0.00 50 1015.8
20260504035513 71 183 3.0 11.0 0.00 0.00 0.00 50 1015.9
20260504035015 71 203 2.0 11.0 0.00 0.00 0.00 50 1015.9
20260504034535 71 0 3.0 10.0 0.00 0.00 0.00 49 1015.9
20260504034013 71 0 2.0 9.0 0.00 0.00 0.00 49 1015.8
20260504033513 71 0 3.0 7.0 0.00 0.00 0.00 49 1015.9
20260504033032 71 190 2.0 7.0 0.00 0.00 0.00 49 1015.8
20260504032516 71 183 2.0 6.0 0.00 0.00 0.00 49 1015.6
20260504032017 71 0 1.0 6.0 0.00 0.00 0.00 48 1015.7
20260504031532 72 168 1.0 7.0 0.00 0.00 0.00 48 1015.6
20260504031013 72 0 2.0 11.0 0.00 0.00 0.00 48 1015.5
20260504030511 72 188 3.0 11.0 0.00 0.00 0.00 48 1015.5
20260504030040 72 211 2.0 7.0 0.00 0.00 0.00 48 1015.5
20260504025513 72 0 0.0 6.0 0.00 0.00 0.00 48 1015.5
20260504025040 72 199 1.0 6.0 0.00 0.00 0.00 47 1015.4
20260504024530 72 0 1.0 9.0 0.00 0.00 0.00 47 1015.4
20260504024013 72 212 2.0 9.0 0.00 0.00 0.00 47 1015.6
20260504023515 73 191 0.0 7.0 0.00 0.00 0.00 47 1015.6
20260504023032 73 0 2.0 7.0 0.00 0.00 0.00 47 1015.7
20260504022512 73 164 1.0 10.0 0.00 0.00 0.00 48 1015.7
20260504022016 73 186 3.0 10.0 0.00 0.00 0.00 47 1015.8
20260504021535 73 225 4.0 10.0 0.00 0.00 0.00 46 1015.6
20260504021012 73 218 2.0 10.0 0.00 0.00 0.00 46 1015.5
20260504020514 73 212 3.0 10.0 0.00 0.00 0.00 46 1015.4
20260504020036 74 204 2.0 8.0 0.00 0.00 0.00 46 1015.4
20260504015512 74 164 1.0 7.0 0.00 0.00 0.00 46 1015.3
20260504015015 74 231 2.0 10.0 0.00 0.00 0.00 45 1015.3
20260504014531 74 204 2.0 10.0 0.00 0.00 0.00 47 1015.3
20260504014013 74 231 2.0 8.0 0.00 0.00 0.00 45 1015.4
20260504013516 75 200 2.0 9.0 0.00 0.00 0.00 46 1015.3
20260504013033 75 216 2.0 9.0 0.00 0.00 0.00 46 1015.3
20260504012515 75 0 1.0 10.0 0.00 0.00 0.00 43 1015.2
20260504012020 76 203 3.0 13.0 0.00 0.00 0.00 42 1015.2
20260504011532 76 222 3.0 13.0 0.00 0.00 0.00 41 1015.3
20260504011014 76 166 2.0 10.0 0.00 0.00 0.00 41 1015.3
20260504010512 76 204 3.0 10.0 0.00 0.00 0.00 40 1015.2
20260504010030 77 150 1.0 8.0 0.00 0.00 0.00 39 1015.1
20260504005516 77 252 2.0 8.0 0.00 0.00 0.00 38 1015.0
20260504005013 77 239 2.0 8.0 0.00 0.00 0.00 37 1015.1
20260504004532 77 222 3.0 9.0 0.00 0.00 0.00 35 1015.2
20260504004013 77 0 2.0 9.0 0.00 0.00 0.00 34 1015.2
20260504003515 78 172 2.0 9.0 0.00 0.00 0.00 35 1015.0
20260504003034 78 210 2.0 8.0 0.00 0.00 0.00 35 1015.1
20260504002515 78 203 4.0 10.0 0.00 0.00 0.00 35 1015.1
20260504002014 78 207 3.0 11.0 0.00 0.00 0.00 34 1015.1
20260504001534 78 217 3.0 11.0 0.00 0.00 0.00 35 1015.1
20260504001014 78 180 3.0 11.0 0.00 0.00 0.00 35 1015.1
20260504000512 79 177 1.0 9.0 0.00 0.00 0.00 35 1015.3
20260504000032 79 227 2.0 12.0 0.00 0.00 0.00 34 1015.3
20260503235516 79 210 4.0 12.0 0.00 0.00 0.00 33 1015.3
20260503235014 79 227 3.0 11.0 0.00 0.00 0.00 34 1015.3
20260503234543 79 220 4.0 11.0 0.00 0.00 0.00 35 1015.3
20260503234013 79 210 2.0 11.0 0.00 0.00 0.00 34 1015.4
20260503233513 79 227 4.0 11.0 0.00 0.00 0.00 35 1015.3
20260503233031 79 0 2.0 12.0 0.00 0.00 0.00 35 1015.5
20260503232512 80 202 3.0 12.0 0.00 0.00 0.00 34 1015.4
20260503232014 80 210 2.0 9.0 0.00 0.00 0.00 34 1015.4
20260503231532 80 214 0.0 8.0 0.00 0.00 0.00 34 1015.3
20260503231018 80 214 2.0 11.0 0.00 0.00 0.00 34 1015.5